Regional Weather Roundup
Issued by NWS

Home | Current Version | Previous Version | Graphics & Text | Print | Product List | Glossary On
Versions: 1 2 3 4 5 6 7 8 9 10 11 12 13 14 15 16 17 18 19 20 21 22 23 24 25 26 27 28 29 30 31 32 33 34 35 36 37 38 39 40 41 42 43 44 45 46 47 48 49 50
000
ASUS45 KBOI 021010
RWRID

IDAHO REGIONAL WEATHER ROUNDUP
NATIONAL WEATHER SERVICE BOISE ID
400 AM MDT MON MAY 02 2016

NOTE: "FAIR" INDICATES FEW OR NO CLOUDS BELOW 12000 FEET
WITH NO SIGNIFICANT WEATHER AND/OR OBSTRUCTIONS TO VISIBILITY

IDZ012-014-021100-
SOUTHWEST IDAHO


CITY           SKY/WX    TMP DP  RH WIND       PRES   REMARKS
BOISE          CLEAR     51  37  58 SE8       30.09R
CALDWELL       CLEAR     47  36  65 E6        30.09R
MOUNTAIN HOME  CLEAR     41  33  74 E6        30.11R
$$

IDZ016-017-021100-
SOUTHCENTRAL IDAHO


CITY           SKY/WX    TMP DP  RH WIND       PRES   REMARKS
BURLEY         CLEAR     37  32  82 N3        30.14R
JEROME         CLEAR     42  32  67 NE8       30.14S
TWIN FALLS     CLEAR     34  29  82 S6        30.15R WCI  29
$$

IDZ019>023-021100-
SOUTHEAST IDAHO


CITY           SKY/WX    TMP DP  RH WIND       PRES   REMARKS
IDAHO FALLS    CLEAR     36  24  62 CALM      30.21R
POCATELLO      CLEAR     39  27  62 NE5       30.19R
REXBURG        CLEAR     38  25  59 VRB3      30.21R
$$

IDZ006-010-011-018-031-032-021100-
CENTRAL IDAHO MOUNTAINS


CITY           SKY/WX    TMP DP  RH WIND       PRES   REMARKS
MCCALL         CLEAR     37  33  85 CALM      30.15R
HAILEY         CLEAR     37  30  75 NW7       30.21R WCI  32
STANLEY          N/A     27  22  81 S3        30.24R
SALMON         CLEAR     34  28  80 CALM      30.19R
CHALLIS        CLEAR     38  25  59 SE3       30.18S
$$

IDZ002-004-006-007-026-021100-
NORTHERN IDAHO


CITY           SKY/WX    TMP DP  RH WIND       PRES   REMARKS
LEWISTON       CLEAR     52  45  77 NW3       30.06R
LOWELL           N/A     46  43  89 N5        30.14R
COEUR D`ALENE  CLEAR     48  39  71 E9        30.07S
MULLAN PASS    CLEAR     46  28  49 SE9G17    30.19S
$$



USA.gov is the U.S. government's official web portal to all federal, state and local government web resources and services.